Date String (YYYY-MM-DD hh:mm:ss) UTC,Instrument flags,absolute air pressure of the measurement (hPa),sample flow rate (lpm),inlet stack bypass flow (lpm),air temperature of the measurement (°C),ambient temperature measured by the external sensor (°C),aerosol sample conditioner tube jacket temperature (°C),OPC LED temperature (°C),internal box temperature (°C),relative humidity of the measurement (%),span deviation,mass concentration of particles derived from Lorenz-Mie calculation of OPC scattering (μg/m³),mass concentration of particles derived from Lorenz-Mie calculation of OPC scattering (μg/m³),mass concentration of particles derived from Lorenz-Mie calculation of OPC scattering (μg/m³)
DateTimeUTC,F1_M11,P_M11,Q1_M11,Q2_M11,T1_M11,T2_M11,T3_M11,T4_M11,T5_M11,U1_M11,ZSPAN_M11,X2_M11,X0_M11,X1_M11
2023-07-12 10:00:00,SystemResetWarning,0830.3,5.01,000.00,029.6,025.5,000.0,037.9,030.9,15.2,0000.0,0003.79,0009.13,0003.21
2023-07-12 10:01:00,SystemResetWarning,0830.3,5.01,000.00,029.5,025.6,000.0,037.9,030.8,15.4,0000.0,0003.82,0009.24,0003.22
2023-07-12 10:02:00,SystemResetWarning,0830.3,5.00,000.00,029.4,025.9,000.0,037.9,030.7,15.5,0000.0,0003.83,0009.59,0003.22
2023-07-12 10:03:00,SystemResetWarning,0830.3,5.00,000.00,029.4,026.3,000.0,037.9,030.8,16.1,0000.0,0003.84,0008.96,0003.24
2023-07-12 10:04:00,SystemResetWarning,0830.3,5.00,000.00,029.4,026.7,000.0,038.0,030.8,15.9,0000.0,0003.86,0010.17,0003.26
2023-07-12 10:05:00,SystemResetWarning,0830.3,5.00,000.00,029.4,027.0,000.0,038.0,030.9,15.6,0000.0,0003.88,0011.91,0003.27
2023-07-12 10:06:00,SystemResetWarning,0830.3,4.99,000.00,029.4,027.3,000.0,038.0,031.0,15.1,0000.0,0003.89,0012.01,0003.27
2023-07-12 10:07:00,SystemResetWarning,0830.3,4.99,000.00,029.4,027.5,000.0,038.0,031.0,15.2,0000.0,0003.89,0011.71,0003.28
2023-07-12 10:08:00,SystemResetWarning,0830.4,5.00,000.00,029.5,027.7,000.0,038.0,031.1,15.1,0000.0,0003.92,0011.50,0003.30
2023-07-12 10:09:00,SystemResetWarning,0830.4,5.01,000.00,029.5,027.9,000.0,038.0,031.1,16.1,0000.0,0003.97,0011.29,0003.32
2023-07-12 10:10:00,SystemResetWarning,0830.4,5.01,000.00,029.5,028.0,000.0,038.0,031.1,15.4,0000.0,0004.00,0011.30,0003.34
2023-07-12 10:11:00,SystemResetWarning,0830.4,5.00,000.00,029.5,028.1,000.0,038.0,031.2,15.5,0000.0,0004.05,0011.43,0003.35
2023-07-12 10:12:00,SystemResetWarning,0830.4,4.99,000.00,029.6,028.3,000.0,038.0,031.2,15.1,0000.0,0004.05,0011.60,0003.35
2023-07-12 10:13:00,SystemResetWarning,0830.4,4.99,000.00,029.6,028.3,000.0,038.0,031.2,14.8,0000.0,0004.04,0011.40,0003.35
2023-07-12 10:14:00,SystemResetWarning,0830.4,4.99,000.00,029.6,028.4,000.0,038.1,031.3,14.7,0000.0,0004.05,0011.57,0003.35
2023-07-12 10:15:00,SystemResetWarning,0830.4,4.99,000.00,029.6,028.5,000.0,038.1,031.3,14.6,0000.0,0004.03,0010.70,0003.34
2023-07-12 10:16:00,SystemResetWarning,0830.4,5.00,000.00,029.7,028.5,000.0,038.1,031.3,15.1,0000.0,0004.03,0009.23,0003.34
2023-07-12 10:17:00,SystemResetWarning,0830.4,5.00,000.00,029.7,028.6,000.0,038.1,031.3,14.7,0000.0,0004.05,0009.56,0003.35
2023-07-12 10:18:00,SystemResetWarning,0830.4,5.00,000.00,029.7,028.6,000.0,038.1,031.3,14.9,0000.0,0004.07,0010.19,0003.36
2023-07-12 10:19:00,SystemResetWarning,0830.3,5.00,000.00,029.8,028.6,000.0,038.2,031.4,14.5,0000.0,0004.06,0010.03,0003.36
2023-07-12 10:20:00,SystemResetWarning,0830.4,5.00,000.00,029.8,028.2,000.0,038.1,031.3,14.1,0000.0,0004.03,0009.90,0003.36
2023-07-12 10:21:00,SystemResetWarning,0830.3,5.00,000.00,029.7,026.2,000.0,038.0,031.1,13.6,0000.0,0004.01,0010.19,0003.34
2023-07-12 10:22:00,SystemResetWarning,0830.4,5.02,000.00,029.6,025.4,000.0,037.9,030.9,13.8,0000.0,0003.96,0010.28,0003.32
2023-07-12 10:23:00,SystemResetWarning,0830.4,5.00,000.00,029.5,025.6,000.0,037.9,030.7,13.9,0000.0,0003.97,0010.10,0003.31
2023-07-12 10:24:00,SystemResetWarning,0830.4,5.00,000.00,029.5,025.9,000.0,038.0,030.7,13.7,0000.0,0003.99,0010.07,0003.31
2023-07-12 10:25:00,SystemResetWarning,0830.6,5.00,000.00,029.4,026.3,000.0,038.0,030.8,13.7,0000.0,0003.95,0009.71,0003.31
2023-07-12 10:26:00,SystemResetWarning,0830.5,5.00,000.00,029.4,026.7,000.0,038.0,030.8,13.8,0000.0,0003.93,0009.96,0003.30
2023-07-12 10:27:00,SystemResetWarning,0830.6,5.00,000.00,029.4,027.0,000.0,038.0,030.9,14.0,0000.0,0003.91,0009.55,0003.30
2023-07-12 10:28:00,SystemResetWarning,0830.6,5.00,000.00,029.4,027.3,000.0,038.0,030.9,13.6,0000.0,0003.88,0008.75,0003.30
2023-07-12 10:29:00,SystemResetWarning,0830.5,5.00,000.00,029.4,027.5,000.0,038.0,031.0,13.7,0000.0,0003.84,0008.04,0003.29
2023-07-12 10:30:00,SystemResetWarning,0830.6,4.99,000.00,029.5,027.7,000.0,038.0,031.0,13.5,0000.0,0003.81,0007.89,0003.29
2023-07-12 10:31:00,SystemResetWarning,0830.6,4.99,000.00,029.5,027.9,000.0,038.0,031.1,13.3,0000.0,0003.79,0008.04,0003.29
2023-07-12 10:32:00,SystemResetWarning,0830.6,5.00,000.00,029.5,028.0,000.0,038.0,031.1,13.4,0000.0,0003.81,0008.01,0003.29
2023-07-12 10:33:00,SystemResetWarning,0830.7,5.00,000.00,029.5,028.1,000.0,038.0,031.1,13.3,0000.0,0003.79,0008.53,0003.29
2023-07-12 10:34:00,SystemResetWarning,0830.7,4.99,000.00,029.5,028.2,000.0,038.0,031.2,13.3,0000.0,0003.76,0009.24,0003.30
2023-07-12 10:35:00,SystemResetWarning,0830.8,5.01,000.00,029.6,028.3,000.0,038.0,031.2,13.3,0000.0,0003.78,0009.99,0003.30
2023-07-12 10:36:00,SystemResetWarning,0830.8,5.00,000.00,029.6,028.3,000.0,038.1,031.2,13.6,0000.0,0003.80,0010.39,0003.29
2023-07-12 10:37:00,SystemResetWarning,0830.8,5.01,000.00,029.6,028.4,000.0,038.1,031.3,13.8,0000.0,0003.77,0010.13,0003.29
2023-07-12 10:38:00,SystemResetWarning,0830.8,4.99,000.00,029.7,028.5,000.0,038.1,031.3,13.8,0000.0,0003.78,0009.98,0003.29
2023-07-12 10:39:00,SystemResetWarning,0830.8,4.99,000.00,029.7,028.5,000.0,038.1,031.3,13.5,0000.0,0003.78,0010.01,0003.28
2023-07-12 10:40:00,SystemResetWarning,0830.9,5.00,000.00,029.7,028.6,000.0,038.1,031.3,13.6,0000.0,0003.77,0010.05,0003.27
2023-07-12 10:41:00,SystemResetWarning,0830.9,5.01,000.00,029.7,028.6,000.0,038.2,031.3,13.7,0000.0,0003.78,0010.08,0003.26
2023-07-12 10:42:00,SystemResetWarning,0830.9,5.01,000.00,029.8,028.6,000.0,038.2,031.4,13.5,0000.0,0003.78,0010.18,0003.25
2023-07-12 10:43:00,SystemResetWarning,0830.9,4.98,000.00,029.8,027.1,000.0,038.1,031.3,13.4,0000.0,0003.80,0010.52,0003.25
2023-07-12 10:44:00,SystemResetWarning,0830.8,5.02,000.00,029.7,025.6,000.0,038.0,031.0,13.5,0000.0,0003.80,0010.33,0003.25
2023-07-12 10:45:00,SystemResetWarning,0830.9,5.01,000.00,029.6,025.5,000.0,037.9,030.8,13.6,0000.0,0003.79,0010.22,0003.25
2023-07-12 10:46:00,SystemResetWarning,0830.8,5.00,000.00,029.5,025.8,000.0,038.0,030.6,13.7,0000.0,0003.73,0009.62,0003.24
2023-07-12 10:47:00,SystemResetWarning,0830.9,5.00,000.00,029.4,026.2,000.0,038.0,030.7,13.8,0000.0,0003.71,0009.04,0003.24
2023-07-12 10:48:00,SystemResetWarning,0830.9,5.00,000.00,029.4,026.6,000.0,038.0,030.8,13.9,0000.0,0003.76,0009.15,0003.25
2023-07-12 10:49:00,SystemResetWarning,0830.9,5.00,000.00,029.4,026.9,000.0,038.0,030.9,14.1,0000.0,0003.79,0009.70,0003.25
2023-07-12 10:50:00,SystemResetWarning,0830.9,5.00,000.00,029.4,027.2,000.0,038.0,030.9,14.1,0000.0,0003.80,0011.28,0003.25
2023-07-12 10:51:00,SystemResetWarning,0830.9,5.00,000.00,029.4,027.4,000.0,038.0,031.0,13.9,0000.0,0003.83,0012.36,0003.25
2023-07-12 10:52:00,SystemResetWarning,0830.9,4.99,000.00,029.4,027.6,000.0,038.0,031.0,13.8,0000.0,0003.88,0013.16,0003.26
2023-07-12 10:53:00,SystemResetWarning,0830.9,5.01,000.00,029.5,027.8,000.0,038.0,031.0,13.7,0000.0,0003.90,0013.05,0003.26
2023-07-12 10:54:00,SystemResetWarning,0830.9,5.00,000.00,029.5,027.9,000.0,038.0,031.1,14.1,0000.0,0003.85,0012.45,0003.26
2023-07-12 10:55:00,SystemResetWarning,0831.0,5.00,000.00,029.5,028.0,000.0,038.0,031.1,14.5,0000.0,0003.85,0012.23,0003.27
2023-07-12 10:56:00,SystemResetWarning,0831.0,5.00,000.00,029.5,028.1,000.0,038.0,031.1,14.1,0000.0,0003.86,0011.54,0003.27
2023-07-12 10:57:00,SystemResetWarning,0831.1,5.01,000.00,029.6,028.2,000.0,038.0,031.2,13.7,0000.0,0003.85,0012.08,0003.26
2023-07-12 10:58:00,SystemResetWarning,0831.1,4.99,000.00,029.6,028.3,000.0,038.1,031.2,13.8,0000.0,0003.85,0012.32,0003.27
2023-07-12 10:59:00,SystemResetWarning,0831.1,5.00,000.00,029.6,028.4,000.0,038.1,031.2,13.8,0000.0,0003.80,0012.15,0003.26
